UAL97K EDDM-KBOS

Flight info

Callsign UAL97K
Flight time N/A
Altitude 34000
Route GIVMI6S GIVMI Y101 INBED DCT REKDI DCT LOHRE DCT ADKUV DCT BUB DCT DENUT L610 KOPUL Q63 ICTAM L179 SAWPE DCT OZZIL DCT ARPAK DCT FELCA DCT OFSOX DCT SLANY DCT TOBOR/M084F350 DCT 53N020W 53N030W 5230N04000W 50N050W DCT ELSIR/N0481F360 DCT TUSKY DCT EURRO OOSHN5
Aircraft B77W/H-SDE1E2E3FGHIJ2J3J4J5M1RWXY/LB1D1

Departure

Time N/A
Airport Munich Airport (EDDM)

Arrival

Time 2026-05-07 00:59
Airport Boston Logan International Airport (KBOS)
Time Latitude Longitude Altitude Speed Heading
2026-05-06 21:19 52.69067 -37.70316 34164 ft 465 kts 270°
2026-05-06 21:19 52.68325 -37.80400 34153 ft 459 kts 271°
2026-05-06 21:20 52.67583 -37.90415 34128 ft 464 kts 271°
2026-05-06 21:20 52.66812 -38.00657 34157 ft 461 kts 271°
2026-05-06 21:21 52.66009 -38.11183 34157 ft 456 kts 272°
2026-05-06 21:21 52.65234 -38.21289 34109 ft 460 kts 271°
2026-05-06 21:22 52.64459 -38.31241 34196 ft 459 kts 272°
2026-05-06 21:22 52.63725 -38.40574 34169 ft 460 kts 272°
2026-05-06 21:23 52.62896 -38.50968 34156 ft 457 kts 271°
2026-05-06 21:23 52.62091 -38.60971 34118 ft 452 kts 272°
2026-05-06 21:24 52.61277 -38.71000 34121 ft 459 kts 271°
2026-05-06 21:24 52.60452 -38.81031 34213 ft 456 kts 271°
2026-05-06 21:25 52.59600 -38.91226 34223 ft 446 kts 272°
2026-05-06 21:25 52.58767 -39.01218 34126 ft 453 kts 271°
2026-05-06 21:26 52.57900 -39.11396 34121 ft 448 kts 272°
2026-05-06 21:26 52.56915 -39.22897 34163 ft 449 kts 272°
2026-05-06 21:27 52.56185 -39.31303 34108 ft 446 kts 272°
2026-05-06 21:27 52.55759 -39.36211 34247 ft 451 kts 272°
2026-05-06 21:27 52.55325 -39.41168 34120 ft 451 kts 272°
2026-05-06 21:28 52.54446 -39.51073 34146 ft 445 kts 273°
2026-05-06 21:28 52.53583 -39.60794 34207 ft 450 kts 273°
2026-05-06 21:29 52.52695 -39.70611 34130 ft 444 kts 272°
2026-05-06 21:29 52.51775 -39.80762 34294 ft 451 kts 272°
2026-05-06 21:29 52.51311 -39.85824 34157 ft 447 kts 272°
2026-05-06 21:30 52.50852 -39.90794 34154 ft 446 kts 272°
2026-05-06 21:30 52.49671 -40.00653 34107 ft 458 kts 264°
2026-05-06 21:31 52.47824 -40.10557 34142 ft 462 kts 264°
2026-05-06 21:31 52.45897 -40.20576 34140 ft 460 kts 263°
2026-05-06 21:32 52.43941 -40.30579 34141 ft 461 kts 263°
2026-05-06 21:32 52.41051 -40.45162 34144 ft 464 kts 263°
2026-05-06 21:33 52.39082 -40.54993 34153 ft 464 kts 263°
2026-05-06 21:33 52.37166 -40.64499 34149 ft 465 kts 263°
2026-05-06 21:34 52.35155 -40.74429 34155 ft 464 kts 262°
2026-05-06 21:34 52.33166 -40.84201 34143 ft 468 kts 262°
2026-05-06 21:35 52.31124 -40.94160 34140 ft 466 kts 261°
2026-05-06 21:35 52.29090 -41.04052 34157 ft 469 kts 262°
2026-05-06 21:36 52.27032 -41.13983 34148 ft 460 kts 261°
2026-05-06 21:36 52.25032 -41.23616 34160 ft 465 kts 261°
2026-05-06 21:37 52.23010 -41.33293 34154 ft 462 kts 261°
2026-05-06 21:37 52.20997 -41.42892 34160 ft 466 kts 261°
2026-05-06 21:38 52.18919 -41.52734 34151 ft 460 kts 261°
2026-05-06 21:38 52.16914 -41.62216 34170 ft 467 kts 261°
2026-05-06 21:39 52.14886 -41.71732 34162 ft 464 kts 259°
2026-05-06 21:39 52.12820 -41.81382 34174 ft 460 kts 259°
2026-05-06 21:40 52.10721 -41.91168 34151 ft 467 kts 259°
2026-05-06 21:40 52.08652 -42.00740 34167 ft 466 kts 259°
2026-05-06 21:41 52.07643 -42.05403 34551 ft 468 kts 258°
2026-05-06 21:41 52.06607 -42.10166 35171 ft 463 kts 258°
2026-05-06 21:41 52.05556 -42.14988 35710 ft 461 kts 258°
2026-05-06 21:41 52.04519 -42.19738 36117 ft 459 kts 258°
2026-05-06 21:42 52.02420 -42.29324 36182 ft 456 kts 258°
2026-05-06 21:42 52.00320 -42.38873 36185 ft 458 kts 258°
2026-05-06 21:43 51.98267 -42.48166 36182 ft 456 kts 258°
2026-05-06 21:43 51.96156 -42.57671 36151 ft 453 kts 258°
2026-05-06 21:44 51.94146 -42.66690 36177 ft 455 kts 257°
2026-05-06 21:44 51.91987 -42.76328 36163 ft 451 kts 257°
2026-05-06 21:45 51.89920 -42.85520 36189 ft 454 kts 257°
2026-05-06 21:45 51.87883 -42.94529 36153 ft 449 kts 258°
2026-05-06 21:46 51.85840 -43.03532 36162 ft 449 kts 257°
2026-05-06 21:46 51.83720 -43.12837 36140 ft 448 kts 257°
2026-05-06 21:47 51.81656 -43.21861 36148 ft 452 kts 257°
2026-05-06 21:47 51.79548 -43.31023 36140 ft 448 kts 257°
2026-05-06 21:48 51.77495 -43.39923 36156 ft 453 kts 256°
2026-05-06 21:48 51.75365 -43.49104 36132 ft 449 kts 257°
2026-05-06 21:49 51.73302 -43.57970 36143 ft 452 kts 256°
2026-05-06 21:49 51.71189 -43.67005 36131 ft 449 kts 256°
2026-05-06 21:50 51.69082 -43.75984 36134 ft 452 kts 255°
2026-05-06 21:50 51.66884 -43.85307 36146 ft 453 kts 255°
2026-05-06 21:51 51.64814 -43.94043 36139 ft 452 kts 255°
2026-05-06 21:51 51.62678 -44.03024 36146 ft 453 kts 255°
2026-05-06 21:52 51.60580 -44.11819 36132 ft 453 kts 255°
2026-05-06 21:52 51.58470 -44.20619 36137 ft 455 kts 255°
2026-05-06 21:53 51.56445 -44.29032 36130 ft 452 kts 255°
2026-05-06 21:53 51.54310 -44.37875 36131 ft 455 kts 255°
2026-05-06 21:54 51.52167 -44.46709 36129 ft 455 kts 255°
2026-05-06 21:54 51.49973 -44.55715 36124 ft 456 kts 254°
2026-05-06 21:55 51.47619 -44.65338 36128 ft 456 kts 253°
2026-05-06 21:55 51.45320 -44.74699 36136 ft 458 kts 253°
2026-05-06 21:56 51.43003 -44.84088 36133 ft 457 kts 253°
2026-05-06 21:56 51.40676 -44.93480 36140 ft 456 kts 253°
2026-05-06 21:57 51.38354 -45.02812 36124 ft 456 kts 253°
2026-05-06 21:57 51.36107 -45.11810 36127 ft 457 kts 253°
2026-05-06 21:58 51.33800 -45.21005 36134 ft 457 kts 253°
2026-05-06 21:58 51.31602 -45.29728 36124 ft 456 kts 253°
2026-05-06 21:59 51.29324 -45.38739 36132 ft 457 kts 253°
2026-05-06 21:59 51.27089 -45.47543 36127 ft 457 kts 253°
2026-05-06 22:00 51.24800 -45.56524 36126 ft 456 kts 252°
2026-05-06 22:00 51.22565 -45.65256 36122 ft 455 kts 252°
2026-05-06 22:01 51.20255 -45.74252 36134 ft 457 kts 252°
2026-05-06 22:01 51.17953 -45.83171 36131 ft 453 kts 251°
2026-05-06 22:02 51.15625 -45.92164 36130 ft 455 kts 252°
2026-05-06 22:02 51.13400 -46.00721 36119 ft 453 kts 251°
2026-05-06 22:03 51.11147 -46.09360 36112 ft 453 kts 251°
2026-05-06 22:03 51.08966 -46.17687 36117 ft 455 kts 251°
2026-05-06 22:04 51.06668 -46.26429 36110 ft 455 kts 251°
2026-05-06 22:04 51.04382 -46.35090 36122 ft 457 kts 251°
2026-05-06 22:05 51.01976 -46.44171 36117 ft 456 kts 251°
2026-05-06 22:05 50.99572 -46.53209 36112 ft 454 kts 251°
2026-05-06 22:06 50.97131 -46.62353 36116 ft 453 kts 251°
2026-05-06 22:06 50.94678 -46.71501 36131 ft 454 kts 250°
2026-05-06 22:07 50.92166 -46.80833 36128 ft 453 kts 250°
2026-05-06 22:07 50.89754 -46.89764 36116 ft 455 kts 250°
2026-05-06 22:08 50.87279 -46.98884 36130 ft 454 kts 250°
2026-05-06 22:08 50.84811 -47.07946 36138 ft 453 kts 250°
2026-05-06 22:09 50.82355 -47.16931 36117 ft 455 kts 250°
2026-05-06 22:09 50.79917 -47.25812 36140 ft 454 kts 250°
2026-05-06 22:10 50.77412 -47.34907 36113 ft 455 kts 250°
2026-05-06 22:10 50.74970 -47.43734 36119 ft 453 kts 250°
2026-05-06 22:11 50.72532 -47.52516 36121 ft 454 kts 250°
2026-05-06 22:11 50.70071 -47.61350 36169 ft 454 kts 250°
2026-05-06 22:12 50.67561 -47.70324 36146 ft 454 kts 249°
2026-05-06 22:12 50.64999 -47.79446 36156 ft 452 kts 249°
2026-05-06 22:13 50.62466 -47.88434 36098 ft 452 kts 249°
2026-05-06 22:13 50.59936 -47.97376 36152 ft 453 kts 249°
2026-05-06 22:14 50.57368 -48.06417 36132 ft 453 kts 249°
2026-05-06 22:14 50.54804 -48.15411 36128 ft 453 kts 249°
2026-05-06 22:15 50.52301 -48.24156 36124 ft 450 kts 248°
2026-05-06 22:15 50.49758 -48.33011 36135 ft 453 kts 249°
2026-05-06 22:16 50.47331 -48.41429 36147 ft 452 kts 249°
2026-05-06 22:16 50.44870 -48.49936 36112 ft 452 kts 249°
2026-05-06 22:17 50.42458 -48.58245 36116 ft 453 kts 248°
2026-05-06 22:17 50.39973 -48.66772 36131 ft 451 kts 248°
2026-05-06 22:18 50.37381 -48.75641 36121 ft 453 kts 247°
2026-05-06 22:18 50.34735 -48.84654 36119 ft 450 kts 247°
2026-05-06 22:19 50.32139 -48.93467 36108 ft 451 kts 248°
2026-05-06 22:19 50.29498 -49.02403 36120 ft 454 kts 248°
2026-05-06 22:20 50.26860 -49.11290 36118 ft 451 kts 247°
2026-05-06 22:20 50.24188 -49.20261 36126 ft 452 kts 247°
2026-05-06 22:21 50.21522 -49.29179 36133 ft 452 kts 247°
2026-05-06 22:21 50.18870 -49.38016 36147 ft 450 kts 247°
2026-05-06 22:22 50.16269 -49.46653 36127 ft 450 kts 247°
2026-05-06 22:22 50.13696 -49.55171 36140 ft 449 kts 247°
2026-05-06 22:23 50.11255 -49.63219 36131 ft 450 kts 247°
2026-05-06 22:23 50.08660 -49.71747 36126 ft 450 kts 246°
2026-05-06 22:24 50.06144 -49.79991 36127 ft 449 kts 246°
2026-05-06 22:24 50.03583 -49.88351 36135 ft 449 kts 246°
2026-05-06 22:25 50.00939 -49.96953 36105 ft 450 kts 246°
2026-05-06 22:25 49.98478 -50.05722 36147 ft 451 kts 251°
2026-05-06 22:26 49.96405 -50.14642 36127 ft 447 kts 251°
2026-05-06 22:26 49.94289 -50.23595 36112 ft 450 kts 251°
2026-05-06 22:27 49.92115 -50.32666 36119 ft 451 kts 251°
2026-05-06 22:27 49.89950 -50.41623 36133 ft 452 kts 251°
2026-05-06 22:28 49.87744 -50.50686 36115 ft 451 kts 251°
2026-05-06 22:28 49.85634 -50.59313 36125 ft 453 kts 251°
2026-05-06 22:29 49.83419 -50.68325 36133 ft 452 kts 250°
2026-05-06 22:29 49.81124 -50.77621 36131 ft 455 kts 250°
2026-05-06 22:30 49.78803 -50.86984 36135 ft 454 kts 250°
2026-05-06 22:30 49.76469 -50.96356 36106 ft 454 kts 250°
2026-05-06 22:31 49.74202 -51.05424 36145 ft 455 kts 250°
2026-05-06 22:31 49.71858 -51.14759 36150 ft 454 kts 250°
2026-05-06 22:32 49.69510 -51.24071 36140 ft 455 kts 251°
2026-05-06 22:32 49.67162 -51.33345 36132 ft 456 kts 251°
2026-05-06 22:33 49.64854 -51.42420 36138 ft 455 kts 251°
2026-05-06 22:33 49.62490 -51.51683 36132 ft 455 kts 251°
2026-05-06 22:34 49.60131 -51.60888 36126 ft 455 kts 251°
2026-05-06 22:34 49.57743 -51.70167 36160 ft 456 kts 250°
2026-05-06 22:35 49.55402 -51.79229 36159 ft 455 kts 250°
2026-05-06 22:35 49.52964 -51.88623 36177 ft 455 kts 250°
2026-05-06 22:36 49.50577 -51.97790 36137 ft 456 kts 250°
2026-05-06 22:36 49.47986 -52.07053 36182 ft 458 kts 248°
2026-05-06 22:37 49.45358 -52.15886 36127 ft 454 kts 248°
2026-05-06 22:37 49.42657 -52.24976 36134 ft 454 kts 248°
2026-05-06 22:38 49.39974 -52.33997 36114 ft 456 kts 248°
2026-05-06 22:38 49.37284 -52.43020 36145 ft 455 kts 248°
2026-05-06 22:39 49.34741 -52.51522 36126 ft 454 kts 248°
2026-05-06 22:39 49.32126 -52.60240 36116 ft 452 kts 249°
2026-05-06 22:40 49.29517 -52.68906 36119 ft 455 kts 248°
2026-05-06 22:40 49.26905 -52.77552 36142 ft 454 kts 248°
2026-05-06 22:41 49.23020 -52.90361 36141 ft 453 kts 248°
2026-05-06 22:42 49.20469 -52.98733 36138 ft 451 kts 248°
2026-05-06 22:42 49.17934 -53.07027 36143 ft 454 kts 248°
2026-05-06 22:43 49.15424 -53.15212 36136 ft 452 kts 248°
2026-05-06 22:43 49.12870 -53.23510 36147 ft 453 kts 248°
2026-05-06 22:44 49.10334 -53.31725 36139 ft 453 kts 248°
2026-05-06 22:44 49.07806 -53.39884 36145 ft 452 kts 248°
2026-05-06 22:45 49.05229 -53.48174 36136 ft 448 kts 248°
2026-05-06 22:45 49.02625 -53.56526 36143 ft 453 kts 248°
2026-05-06 22:46 49.00021 -53.64848 36122 ft 449 kts 248°
2026-05-06 22:46 48.97429 -53.73104 36145 ft 451 kts 248°
2026-05-06 22:47 48.94795 -53.81465 36127 ft 449 kts 248°
2026-05-06 22:47 48.92195 -53.89694 36137 ft 451 kts 247°
2026-05-06 22:48 48.89523 -53.98119 36140 ft 448 kts 247°
2026-05-06 22:48 48.86905 -54.06347 36138 ft 448 kts 247°
2026-05-06 22:49 48.84262 -54.14629 36126 ft 448 kts 247°
2026-05-06 22:49 48.81639 -54.22817 36137 ft 448 kts 247°
2026-05-06 22:50 48.78962 -54.31151 36117 ft 450 kts 247°
2026-05-06 22:50 48.76324 -54.39333 36117 ft 447 kts 247°
2026-05-06 22:51 48.73622 -54.47689 36118 ft 449 kts 248°
2026-05-06 22:51 48.70958 -54.55897 36117 ft 446 kts 248°
2026-05-06 22:52 48.68232 -54.64271 36131 ft 448 kts 248°
2026-05-06 22:52 48.65577 -54.72400 36136 ft 449 kts 247°
2026-05-06 22:53 48.62908 -54.80548 36131 ft 449 kts 247°
2026-05-06 22:53 48.60279 -54.88544 36133 ft 447 kts 247°
2026-05-06 22:54 48.57737 -54.96255 36133 ft 446 kts 247°
2026-05-06 22:54 48.54916 -55.04782 36140 ft 450 kts 247°
2026-05-06 22:55 48.52135 -55.13163 36132 ft 448 kts 246°
2026-05-06 22:55 48.49341 -55.21554 36142 ft 447 kts 247°
2026-05-06 22:56 48.46555 -55.29895 36137 ft 448 kts 247°
2026-05-06 22:56 48.43746 -55.38275 36139 ft 447 kts 246°
2026-05-06 22:57 48.40903 -55.46731 36143 ft 449 kts 246°
2026-05-06 22:57 48.38104 -55.55026 36145 ft 448 kts 246°
2026-05-06 22:58 48.35262 -55.63426 36139 ft 448 kts 247°
2026-05-06 22:58 48.32251 -55.72292 36159 ft 449 kts 246°
2026-05-06 22:59 48.29211 -55.81213 36154 ft 448 kts 246°
2026-05-06 22:59 48.26175 -55.90091 36158 ft 448 kts 246°
2026-05-06 23:00 48.23156 -55.98889 36162 ft 447 kts 246°
2026-05-06 23:00 48.20213 -56.07437 36158 ft 447 kts 246°
2026-05-06 23:01 48.17338 -56.15762 36160 ft 446 kts 246°
2026-05-06 23:01 48.14451 -56.24095 36159 ft 446 kts 245°
2026-05-06 23:02 48.11568 -56.32387 36153 ft 446 kts 246°
2026-05-06 23:02 48.08692 -56.40636 36157 ft 448 kts 246°
2026-05-06 23:03 48.05774 -56.48978 36158 ft 447 kts 246°
2026-05-06 23:03 48.02896 -56.57178 36173 ft 448 kts 246°
2026-05-06 23:04 47.99967 -56.65496 36158 ft 446 kts 245°
2026-05-06 23:04 47.96934 -56.74084 36153 ft 443 kts 245°
2026-05-06 23:05 47.93931 -56.82558 36161 ft 444 kts 245°
2026-05-06 23:05 47.90989 -56.90835 36420 ft 443 kts 245°
2026-05-06 23:05 47.89455 -56.95141 35922 ft 441 kts 245°
2026-05-06 23:06 47.88014 -56.99176 36079 ft 440 kts 245°
2026-05-06 23:06 47.85057 -57.07446 36154 ft 446 kts 245°
2026-05-06 23:07 47.82082 -57.15733 36151 ft 444 kts 245°
2026-05-06 23:07 47.79067 -57.24109 36151 ft 448 kts 245°
2026-05-06 23:08 47.76098 -57.32329 36136 ft 440 kts 245°
2026-05-06 23:08 47.73175 -57.40399 36123 ft 447 kts 245°
2026-05-06 23:09 47.70308 -57.48288 36116 ft 442 kts 245°
2026-05-06 23:09 47.67445 -57.56146 36127 ft 443 kts 245°
2026-05-06 23:10 47.64500 -57.64201 36156 ft 446 kts 245°
2026-05-06 23:10 47.61416 -57.72611 36463 ft 445 kts 243°
2026-05-06 23:10 47.59888 -57.76768 35951 ft 443 kts 244°
2026-05-06 23:11 47.58338 -57.80978 36178 ft 440 kts 244°
2026-05-06 23:11 47.55183 -57.89531 36157 ft 446 kts 243°
2026-05-06 23:12 47.52137 -57.97758 36138 ft 440 kts 243°
2026-05-06 23:12 47.49060 -58.06044 36163 ft 445 kts 243°
2026-05-06 23:13 47.46160 -58.13828 36140 ft 441 kts 243°
2026-05-06 23:13 47.43237 -58.21656 35894 ft 442 kts 243°
2026-05-06 23:13 47.41830 -58.25413 36384 ft 441 kts 243°
2026-05-06 23:14 47.40276 -58.29559 36150 ft 447 kts 243°
2026-05-06 23:14 47.37266 -58.37568 36142 ft 443 kts 243°
2026-05-06 23:14 47.35779 -58.41518 35883 ft 441 kts 243°
2026-05-06 23:15 47.34304 -58.45427 36086 ft 438 kts 243°
2026-05-06 23:15 47.31262 -58.53476 36141 ft 444 kts 243°
2026-05-06 23:16 47.28288 -58.61319 36105 ft 441 kts 243°
2026-05-06 23:16 47.25191 -58.69464 36128 ft 440 kts 243°
2026-05-06 23:17 47.22174 -58.77373 36101 ft 439 kts 243°
2026-05-06 23:17 47.19141 -58.85303 36115 ft 439 kts 243°
2026-05-06 23:18 47.16016 -58.93449 36099 ft 439 kts 242°
2026-05-06 23:18 47.12954 -59.01406 36109 ft 441 kts 242°
2026-05-06 23:19 47.09919 -59.09271 36098 ft 441 kts 242°
2026-05-06 23:19 47.06893 -59.17088 36094 ft 440 kts 242°
2026-05-06 23:20 47.03885 -59.24837 36079 ft 436 kts 243°
2026-05-06 23:20 47.00894 -59.32518 36080 ft 434 kts 242°
2026-05-06 23:21 46.97873 -59.40259 36090 ft 436 kts 242°
2026-05-06 23:21 46.94869 -59.47932 36083 ft 438 kts 242°
2026-05-06 23:22 46.91866 -59.55579 36075 ft 434 kts 243°
2026-05-06 23:22 46.88817 -59.63323 36095 ft 435 kts 243°
2026-05-06 23:23 46.85813 -59.70933 36086 ft 437 kts 242°
2026-05-06 23:23 46.82740 -59.78694 36081 ft 434 kts 242°
2026-05-06 23:24 46.79719 -59.86301 36094 ft 434 kts 242°
2026-05-06 23:24 46.76687 -59.93914 36088 ft 428 kts 242°
2026-05-06 23:25 46.73692 -60.01415 36075 ft 432 kts 242°
2026-05-06 23:25 46.70689 -60.08918 36085 ft 433 kts 242°
2026-05-06 23:26 46.67663 -60.16453 36084 ft 431 kts 242°
2026-05-06 23:26 46.64639 -60.23963 36066 ft 432 kts 242°
2026-05-06 23:27 46.61629 -60.31422 36065 ft 433 kts 242°
2026-05-06 23:27 46.58544 -60.39042 36066 ft 433 kts 242°
2026-05-06 23:28 46.55519 -60.46493 36049 ft 431 kts 242°
2026-05-06 23:28 46.52438 -60.54062 36160 ft 430 kts 241°
2026-05-06 23:29 46.49390 -60.61531 36036 ft 432 kts 241°
2026-05-06 23:29 46.46305 -60.69069 35940 ft 434 kts 240°
2026-05-06 23:29 46.44769 -60.72814 36158 ft 435 kts 240°
2026-05-06 23:30 46.43239 -60.76540 36111 ft 433 kts 240°
2026-05-06 23:30 46.40132 -60.84088 36072 ft 430 kts 240°
2026-05-06 23:31 46.37071 -60.91508 36015 ft 426 kts 240°
2026-05-06 23:31 46.34007 -60.98917 36085 ft 435 kts 240°
2026-05-06 23:32 46.30965 -61.06248 36082 ft 429 kts 240°
2026-05-06 23:32 46.28076 -61.13192 36088 ft 429 kts 240°
2026-05-06 23:33 46.25254 -61.19960 36064 ft 429 kts 240°
2026-05-06 23:33 46.22396 -61.26800 36090 ft 432 kts 240°
2026-05-06 23:34 46.19336 -61.34101 36081 ft 432 kts 240°
2026-05-06 23:34 46.16204 -61.41556 36043 ft 424 kts 240°
2026-05-06 23:35 46.13077 -61.48979 36076 ft 432 kts 240°
2026-05-06 23:35 46.09918 -61.56457 36054 ft 429 kts 240°
2026-05-06 23:36 46.06863 -61.63671 36041 ft 427 kts 240°
2026-05-06 23:36 46.03698 -61.71124 36058 ft 427 kts 239°
2026-05-06 23:37 46.00630 -61.78331 36056 ft 427 kts 239°
2026-05-06 23:37 45.97449 -61.85782 36044 ft 427 kts 239°
2026-05-06 23:38 45.94353 -61.93015 36045 ft 425 kts 239°
2026-05-06 23:38 45.91238 -62.00275 36034 ft 425 kts 239°
2026-05-06 23:39 45.88093 -62.07583 36040 ft 424 kts 239°
2026-05-06 23:39 45.84948 -62.14875 36058 ft 427 kts 239°
2026-05-06 23:40 45.81757 -62.22253 36037 ft 427 kts 239°
2026-05-06 23:40 45.78578 -62.29584 36032 ft 426 kts 239°
2026-05-06 23:41 45.75279 -62.37174 36064 ft 429 kts 239°
2026-05-06 23:41 45.72110 -62.44442 36033 ft 424 kts 239°
2026-05-06 23:42 45.68963 -62.51641 36046 ft 426 kts 239°
2026-05-06 23:42 45.65830 -62.58791 36044 ft 425 kts 239°
2026-05-06 23:43 45.62697 -62.65923 36029 ft 423 kts 238°
2026-05-06 23:43 45.59421 -62.73361 36057 ft 427 kts 237°
2026-05-06 23:44 45.56273 -62.80491 36046 ft 428 kts 238°
2026-05-06 23:44 45.52984 -62.87920 36024 ft 426 kts 238°
2026-05-06 23:45 45.49740 -62.95228 36045 ft 427 kts 238°
2026-05-06 23:45 45.46637 -63.02200 36015 ft 425 kts 238°
2026-05-06 23:46 45.43693 -63.08799 36044 ft 429 kts 238°
2026-05-06 23:46 45.40443 -63.16069 36044 ft 425 kts 237°
2026-05-06 23:47 45.37265 -63.23157 36027 ft 426 kts 237°
2026-05-06 23:47 45.34173 -63.30037 36009 ft 425 kts 237°
2026-05-06 23:48 45.31166 -63.36713 36021 ft 425 kts 238°
2026-05-06 23:48 45.28111 -63.43478 36029 ft 425 kts 237°
2026-05-06 23:49 45.24978 -63.50399 36031 ft 423 kts 237°
2026-05-06 23:49 45.21749 -63.57515 36037 ft 424 kts 237°
2026-05-06 23:50 45.18600 -63.64437 36077 ft 426 kts 238°
2026-05-06 23:50 45.13805 -63.74946 36057 ft 425 kts 237°
2026-05-06 23:51 45.10652 -63.81835 36043 ft 423 kts 237°
2026-05-06 23:51 45.07452 -63.88811 36043 ft 422 kts 237°
2026-05-06 23:52 45.04319 -63.95622 36331 ft 422 kts 237°
2026-05-06 23:52 45.02681 -63.99178 35800 ft 424 kts 237°
2026-05-06 23:52 45.01115 -64.02573 35967 ft 417 kts 237°
2026-05-06 23:53 44.97965 -64.09390 36029 ft 422 kts 237°
2026-05-06 23:53 44.94753 -64.16323 35997 ft 419 kts 237°
2026-05-06 23:54 44.91584 -64.23146 36003 ft 421 kts 237°
2026-05-06 23:54 44.88387 -64.30017 36019 ft 419 kts 237°
2026-05-06 23:55 44.85224 -64.36794 36299 ft 419 kts 237°
2026-05-06 23:55 44.83596 -64.40278 36047 ft 422 kts 237°
2026-05-06 23:55 44.82032 -64.43619 35841 ft 416 kts 237°
2026-05-06 23:56 44.80460 -64.46974 35992 ft 420 kts 237°
2026-05-06 23:56 44.78861 -64.50384 36263 ft 420 kts 237°
2026-05-06 23:56 44.77238 -64.53839 35777 ft 419 kts 237°
2026-05-06 23:56 44.75661 -64.57193 36222 ft 416 kts 237°
2026-05-06 23:57 44.74070 -64.60574 36009 ft 421 kts 237°
2026-05-06 23:57 44.72488 -64.63931 35999 ft 416 kts 237°
2026-05-06 23:57 44.69320 -64.70641 35999 ft 415 kts 236°
2026-05-06 23:58 44.66178 -64.77280 36007 ft 417 kts 236°
2026-05-06 23:58 44.62978 -64.84026 36004 ft 415 kts 236°
2026-05-06 23:59 44.59848 -64.90610 36013 ft 415 kts 237°
2026-05-06 23:59 44.56654 -64.97314 36003 ft 415 kts 236°
2026-05-07 00:00 44.53519 -65.03876 35992 ft 413 kts 236°
2026-05-07 00:00 44.50353 -65.10491 35999 ft 414 kts 236°
2026-05-07 00:01 44.47207 -65.17049 35999 ft 412 kts 236°
2026-05-07 00:01 44.44024 -65.23667 35985 ft 414 kts 236°
2026-05-07 00:02 44.40881 -65.30187 36000 ft 414 kts 236°
2026-05-07 00:02 44.37691 -65.36789 35992 ft 412 kts 237°
2026-05-07 00:03 44.34553 -65.43271 35995 ft 412 kts 237°
2026-05-07 00:03 44.31358 -65.49855 35995 ft 410 kts 236°
2026-05-07 00:04 44.28207 -65.56333 35985 ft 411 kts 236°
2026-05-07 00:04 44.25037 -65.62837 36000 ft 412 kts 236°
2026-05-07 00:05 44.21916 -65.69224 36020 ft 412 kts 236°
2026-05-07 00:05 44.18744 -65.75704 35983 ft 409 kts 236°
2026-05-07 00:06 44.15633 -65.82043 35997 ft 410 kts 235°
2026-05-07 00:06 44.12423 -65.88571 36002 ft 410 kts 235°
2026-05-07 00:07 44.09285 -65.94936 36001 ft 410 kts 236°
2026-05-07 00:07 44.06082 -66.01421 36007 ft 410 kts 235°
2026-05-07 00:08 44.02936 -66.07775 36012 ft 410 kts 236°
2026-05-07 00:08 43.99727 -66.14243 35993 ft 410 kts 235°
2026-05-07 00:09 43.96520 -66.20693 35999 ft 411 kts 236°
2026-05-07 00:09 43.93240 -66.27274 36001 ft 410 kts 236°
2026-05-07 00:10 43.89966 -66.33829 35990 ft 410 kts 236°
2026-05-07 00:10 43.86700 -66.40353 35997 ft 414 kts 236°
2026-05-07 00:11 43.83407 -66.46915 35978 ft 411 kts 236°
2026-05-07 00:11 43.80111 -66.53470 35967 ft 412 kts 236°
2026-05-07 00:12 43.76825 -66.59991 35933 ft 413 kts 237°
2026-05-07 00:12 43.73504 -66.66565 35933 ft 411 kts 236°
2026-05-07 00:13 43.70208 -66.73076 35930 ft 413 kts 237°
2026-05-07 00:13 43.66860 -66.79673 35921 ft 410 kts 237°
2026-05-07 00:14 43.63579 -66.86128 35932 ft 411 kts 236°
2026-05-07 00:14 43.60255 -66.92649 35929 ft 412 kts 236°
2026-05-07 00:15 43.56936 -66.99146 35910 ft 411 kts 237°
2026-05-07 00:15 43.54148 -67.06068 35934 ft 410 kts 251°
2026-05-07 00:16 43.52356 -67.13610 35909 ft 409 kts 251°
2026-05-07 00:16 43.50455 -67.21027 35923 ft 408 kts 250°
2026-05-07 00:17 43.48474 -67.28375 35914 ft 409 kts 250°
2026-05-07 00:17 43.46437 -67.35747 35919 ft 408 kts 250°
2026-05-07 00:18 43.44381 -67.43092 35907 ft 410 kts 250°
2026-05-07 00:18 43.42307 -67.50437 35902 ft 408 kts 250°
2026-05-07 00:19 43.40291 -67.57542 35907 ft 408 kts 249°
2026-05-07 00:19 43.38222 -67.64799 35885 ft 405 kts 249°
2026-05-07 00:20 43.36236 -67.71747 35917 ft 405 kts 249°
2026-05-07 00:20 43.34155 -67.79000 35889 ft 406 kts 249°
2026-05-07 00:21 43.32070 -67.86248 35887 ft 406 kts 249°
2026-05-07 00:21 43.29956 -67.93574 35893 ft 406 kts 249°
2026-05-07 00:22 43.27874 -68.00771 35866 ft 405 kts 249°
2026-05-07 00:22 43.25797 -68.07925 35892 ft 406 kts 250°
2026-05-07 00:23 43.23687 -68.15176 35862 ft 405 kts 250°
2026-05-07 00:23 43.21602 -68.22318 35862 ft 405 kts 250°
2026-05-07 00:24 43.19499 -68.29502 35847 ft 404 kts 249°
2026-05-07 00:24 43.17513 -68.36270 35875 ft 403 kts 250°
2026-05-07 00:25 43.15459 -68.43249 35856 ft 403 kts 249°
2026-05-07 00:25 43.13394 -68.50244 35855 ft 403 kts 250°
2026-05-07 00:26 43.11382 -68.57042 35853 ft 396 kts 250°
2026-05-07 00:26 43.09345 -68.63910 35843 ft 401 kts 250°
2026-05-07 00:27 43.07264 -68.70905 35868 ft 399 kts 250°
2026-05-07 00:27 43.05198 -68.77829 35846 ft 400 kts 250°
2026-05-07 00:28 43.03125 -68.84760 35688 ft 397 kts 249°
2026-05-07 00:28 43.02107 -68.88159 36071 ft 401 kts 250°
2026-05-07 00:28 43.01054 -68.91666 35696 ft 398 kts 250°
2026-05-07 00:29 43.00010 -68.95142 34946 ft 398 kts 249°
2026-05-07 00:29 42.98983 -68.98553 34046 ft 401 kts 250°
2026-05-07 00:30 42.95811 -69.09066 31449 ft 407 kts 249°
2026-05-07 00:30 42.94778 -69.12479 30609 ft 409 kts 249°
2026-05-07 00:30 42.93706 -69.16018 30084 ft 402 kts 250°
2026-05-07 00:30 42.92665 -69.19448 29661 ft 395 kts 250°
2026-05-07 00:31 42.91681 -69.22685 29128 ft 391 kts 249°
2026-05-07 00:31 42.90648 -69.26083 28568 ft 387 kts 249°
2026-05-07 00:31 42.89604 -69.29514 28027 ft 401 kts 249°
2026-05-07 00:31 42.88520 -69.33070 27508 ft 404 kts 248°
2026-05-07 00:32 42.87437 -69.36615 26941 ft 401 kts 248°
2026-05-07 00:32 42.86362 -69.40134 26362 ft 397 kts 248°
2026-05-07 00:32 42.85301 -69.43596 25736 ft 394 kts 248°
2026-05-07 00:32 42.84255 -69.47010 25179 ft 390 kts 248°
2026-05-07 00:33 42.83217 -69.50389 24661 ft 389 kts 247°
2026-05-07 00:33 42.82167 -69.53806 24065 ft 392 kts 246°
2026-05-07 00:33 42.81121 -69.57204 23480 ft 390 kts 247°
2026-05-07 00:33 42.80085 -69.60565 22963 ft 386 kts 246°
2026-05-07 00:34 42.79048 -69.63924 22376 ft 384 kts 246°
2026-05-07 00:34 42.78045 -69.67172 21806 ft 381 kts 246°
2026-05-07 00:34 42.77050 -69.70388 21261 ft 379 kts 246°
2026-05-07 00:34 42.76047 -69.73626 20696 ft 376 kts 245°
2026-05-07 00:35 42.75075 -69.76759 20140 ft 374 kts 246°
2026-05-07 00:35 42.74057 -69.80039 19542 ft 371 kts 246°
2026-05-07 00:35 42.73049 -69.83281 18962 ft 368 kts 246°
2026-05-07 00:35 42.72132 -69.86227 18447 ft 365 kts 246°
2026-05-07 00:36 42.71152 -69.89374 17911 ft 362 kts 245°
2026-05-07 00:36 42.70256 -69.92244 17472 ft 357 kts 246°
2026-05-07 00:36 42.69301 -69.95304 16965 ft 354 kts 246°
2026-05-07 00:36 42.68337 -69.98387 16407 ft 351 kts 246°
2026-05-07 00:37 42.67406 -70.01360 15843 ft 349 kts 246°
2026-05-07 00:37 42.66458 -70.04386 15252 ft 347 kts 246°
2026-05-07 00:37 42.65519 -70.07380 14727 ft 343 kts 245°
2026-05-07 00:37 42.64597 -70.10273 14473 ft 331 kts 245°
2026-05-07 00:38 42.63668 -70.12965 14320 ft 309 kts 244°
2026-05-07 00:38 42.62788 -70.15488 14260 ft 284 kts 244°
2026-05-07 00:38 42.61977 -70.17830 14216 ft 270 kts 244°
2026-05-07 00:38 42.61213 -70.20042 14063 ft 265 kts 244°
2026-05-07 00:39 42.60474 -70.22217 13906 ft 262 kts 248°
2026-05-07 00:39 42.60090 -70.24661 13725 ft 269 kts 261°
2026-05-07 00:39 42.59947 -70.27252 13292 ft 272 kts 263°
2026-05-07 00:39 42.59842 -70.29761 12878 ft 272 kts 263°
2026-05-07 00:40 42.59736 -70.32182 12499 ft 271 kts 263°
2026-05-07 00:40 42.59628 -70.34561 12128 ft 270 kts 264°
2026-05-07 00:40 42.59517 -70.36963 11783 ft 269 kts 263°
2026-05-07 00:40 42.59401 -70.39453 11393 ft 268 kts 263°
2026-05-07 00:41 42.59287 -70.41913 10995 ft 264 kts 263°
2026-05-07 00:41 42.59172 -70.44376 10655 ft 258 kts 263°
2026-05-07 00:41 42.59056 -70.46819 10279 ft 257 kts 263°
2026-05-07 00:41 42.58942 -70.49212 9942 ft 255 kts 263°
2026-05-07 00:42 42.58832 -70.51556 9704 ft 247 kts 263°
2026-05-07 00:42 42.58724 -70.53802 9397 ft 243 kts 264°
2026-05-07 00:42 42.58599 -70.56098 9068 ft 241 kts 259°
2026-05-07 00:42 42.58216 -70.58309 8692 ft 240 kts 253°
2026-05-07 00:43 42.57737 -70.60483 8334 ft 238 kts 253°
2026-05-07 00:43 42.57255 -70.62666 7996 ft 243 kts 253°
2026-05-07 00:43 42.56782 -70.64829 7682 ft 241 kts 253°
2026-05-07 00:43 42.56311 -70.66986 7371 ft 237 kts 253°
2026-05-07 00:44 42.56166 -70.69222 7046 ft 239 kts 273°
2026-05-07 00:44 42.56689 -70.71276 6757 ft 243 kts 295°
2026-05-07 00:44 42.57641 -70.73115 6555 ft 236 kts 301°
2026-05-07 00:44 42.58616 -70.74828 6368 ft 227 kts 301°
2026-05-07 00:45 42.59626 -70.76373 6176 ft 234 kts 315°
2026-05-07 00:45 42.61131 -70.77268 5991 ft 242 kts 346°
2026-05-07 00:45 42.62691 -70.77084 5967 ft 239 kts
2026-05-07 00:45 42.64236 -70.76401 5931 ft 228 kts 13°
2026-05-07 00:46 42.65723 -70.75663 5770 ft 223 kts 14°
2026-05-07 00:46 42.67173 -70.74943 5569 ft 215 kts 13°
2026-05-07 00:46 42.68563 -70.74255 5275 ft 214 kts 13°
2026-05-07 00:46 42.69949 -70.73542 4988 ft 212 kts 15°
2026-05-07 00:47 42.71364 -70.72800 4604 ft 215 kts 14°
2026-05-07 00:47 42.72754 -70.72077 4274 ft 214 kts 14°
2026-05-07 00:47 42.74159 -70.71346 3979 ft 214 kts 12°
2026-05-07 00:47 42.75564 -70.71139 3601 ft 202 kts 339°
2026-05-07 00:48 42.76711 -70.72038 3107 ft 188 kts 300°
2026-05-07 00:48 42.77096 -70.73611 2970 ft 174 kts 261°
2026-05-07 00:48 42.76677 -70.75035 2972 ft 165 kts 238°
2026-05-07 00:48 42.76037 -70.76289 2978 ft 162 kts 236°
2026-05-07 00:49 42.75402 -70.77512 2977 ft 161 kts 236°
2026-05-07 00:49 42.74769 -70.78724 2971 ft 158 kts 236°
2026-05-07 00:49 42.74139 -70.79886 2984 ft 158 kts 233°
2026-05-07 00:49 42.73473 -70.81004 3020 ft 156 kts 233°
2026-05-07 00:50 42.72789 -70.82116 2979 ft 157 kts 227°
2026-05-07 00:50 42.71981 -70.83001 3011 ft 162 kts 217°
2026-05-07 00:50 42.71049 -70.83683 2989 ft 161 kts 211°
2026-05-07 00:50 42.70028 -70.84280 2991 ft 166 kts 208°
2026-05-07 00:51 42.68960 -70.84837 2995 ft 167 kts 206°
2026-05-07 00:51 42.67881 -70.85363 3011 ft 166 kts 206°
2026-05-07 00:51 42.66803 -70.85873 2986 ft 164 kts 206°
2026-05-07 00:51 42.65727 -70.86380 2996 ft 166 kts 205°
2026-05-07 00:52 42.64636 -70.86897 3000 ft 164 kts 206°
2026-05-07 00:52 42.63581 -70.87404 2996 ft 164 kts 206°
2026-05-07 00:52 42.62484 -70.87936 2976 ft 166 kts 206°
2026-05-07 00:52 42.61398 -70.88463 3000 ft 169 kts 206°
2026-05-07 00:53 42.60319 -70.88990 2982 ft 167 kts 206°
2026-05-07 00:53 42.59232 -70.89516 2995 ft 168 kts 206°
2026-05-07 00:53 42.58162 -70.90037 2978 ft 169 kts 206°
2026-05-07 00:53 42.57072 -70.90565 2991 ft 169 kts 206°
2026-05-07 00:54 42.55998 -70.91086 2997 ft 167 kts 206°
2026-05-07 00:54 42.54931 -70.91603 2988 ft 169 kts 206°
2026-05-07 00:54 42.53860 -70.92123 2995 ft 166 kts 206°
2026-05-07 00:54 42.52810 -70.92632 2994 ft 167 kts 207°
2026-05-07 00:55 42.51763 -70.93138 2978 ft 166 kts 206°
2026-05-07 00:55 42.50763 -70.93623 2782 ft 165 kts 206°
2026-05-07 00:55 42.49766 -70.94104 2586 ft 161 kts 206°
2026-05-07 00:55 42.48821 -70.94562 2400 ft 162 kts 205°
2026-05-07 00:56 42.47789 -70.95061 2187 ft 162 kts 205°
2026-05-07 00:56 42.46753 -70.95563 1983 ft 161 kts 204°
2026-05-07 00:56 42.45716 -70.96062 1770 ft 158 kts 203°
2026-05-07 00:56 42.44789 -70.96508 1585 ft 142 kts 203°
2026-05-07 00:57 42.43901 -70.96937 1418 ft 138 kts 203°
2026-05-07 00:57 42.43051 -70.97347 1243 ft 138 kts 203°
2026-05-07 00:57 42.42229 -70.97745 1077 ft 136 kts 202°
2026-05-07 00:57 42.41381 -70.98154 898 ft 137 kts 202°
2026-05-07 00:58 42.40519 -70.98570 717 ft 135 kts 202°
2026-05-07 00:58 42.39661 -70.98982 532 ft 139 kts 202°
2026-05-07 00:58 42.38787 -70.99406 332 ft 136 kts 201°
2026-05-07 00:58 42.37940 -70.99816 154 ft 141 kts 200°
2026-05-07 00:59 42.36220 -71.00643 22 ft 113 kts 199°
2026-05-07 00:59 42.35659 -71.00912 25 ft 72 kts 199°
2026-05-07 00:59 42.35334 -71.01070 27 ft 37 kts 200°
2026-05-07 01:00 42.35204 -71.01154 28 ft 13 kts 241°
2026-05-07 01:00 42.35220 -71.01243 28 ft 11 kts 305°
2026-05-07 01:00 42.35261 -71.01320 27 ft 11 kts 305°
2026-05-07 01:00 42.35292 -71.01380 27 ft 4 kts 304°
2026-05-07 01:01 42.35313 -71.01421 26 ft 6 kts 305°
2026-05-07 01:01 42.35345 -71.01483 25 ft 10 kts 305°
2026-05-07 01:01 42.35387 -71.01561 25 ft 11 kts 306°
2026-05-07 01:01 42.35435 -71.01650 25 ft 14 kts 306°
2026-05-07 01:02 42.35503 -71.01723 25 ft 13 kts 355°
2026-05-07 01:02 42.35587 -71.01691 25 ft 13 kts 20°
2026-05-07 01:02 42.35667 -71.01653 25 ft 13 kts 19°
2026-05-07 01:02 42.35748 -71.01614 26 ft 12 kts 20°
2026-05-07 01:03 42.35824 -71.01578 27 ft 12 kts 20°
2026-05-07 01:03 42.35905 -71.01538 27 ft 15 kts 20°
2026-05-07 01:03 42.36007 -71.01489 25 ft 18 kts 19°
2026-05-07 01:03 42.36126 -71.01431 25 ft 20 kts 20°
2026-05-07 01:04 42.36254 -71.01370 25 ft 21 kts 19°
2026-05-07 01:04 42.36364 -71.01317 25 ft 17 kts 20°
2026-05-07 01:04 42.36470 -71.01265 25 ft 16 kts 20°
2026-05-07 01:04 42.36558 -71.01234 24 ft 9 kts 347°
2026-05-07 01:05 42.36597 -71.01269 23 ft 7 kts 337°
2026-05-07 01:05 42.36651 -71.01263 22 ft 10 kts 18°
2026-05-07 01:05 42.36726 -71.01238 22 ft 13 kts
2026-05-07 01:05 42.36801 -71.01282 22 ft 12 kts 315°
2026-05-07 01:06 42.36859 -71.01360 22 ft 12 kts 315°
2026-05-07 01:06 42.36923 -71.01447 22 ft 15 kts 315°
2026-05-07 01:06 42.36991 -71.01540 22 ft 15 kts 314°
2026-05-07 01:06 42.37058 -71.01633 22 ft 14 kts 315°
2026-05-07 01:07 42.37098 -71.01717 22 ft 10 kts 272°
2026-05-07 01:07 42.37074 -71.01765 22 ft 4 kts 212°
2026-05-07 01:07 42.37056 -71.01780 22 ft 2 kts 209°
2026-05-07 01:07 42.37052 -71.01783 22 ft 0 kts 209°